Flag for Luxembourg Weather past 2 weeks in Differdange, Luxembourg

Now
73 °F

Partly sunny.


Feels Like: 77 °F
Forecast: 56 / 74 °F
Wind: No wind

Location: Luxembourg Airport

Current Time: Jul 26, 2014 at 3:22:59 PM

Latest Report: Jul 26, 2014 at 2:50 PM


Visibility: N/A

Pressure: 29.95 "Hg

Humidity: 57%

Dew point: 57 °F

Location of DifferdangeLocation

Historic Weather in Differdange — Graph

°F

Differdange temperature yesterday

Maximum temperature yesterday: 75 °F (at 1:20 PM)
Minimum temperature yesterday: 59 °F (at 4:50 AM)
Average temperature yesterday: 66 °F

Past Weeks' High & Low Weather Summary

 TemperatureHumidityPressure
High90 °F (Jul 18, 3:50 PM)100% (Jul 13, 11:20 PM)30.21 "Hg (Jul 13, 11:20 PM)
Low55 °F (Jul 15, 4:50 AM)29% (Jul 19, 2:20 PM)29.80 "Hg (Jul 13, 5:20 PM)
Average69 °F68%29.99 "Hg
* Reported Jul 11 1:20 PM — Jul 26 1:50 PM, Differdange, Weather by CustomWeather, © 2014

Note: Actual official high and low records may vary slightly from our data, if they occured in-between our weather recording intervals... More about our weather records

Advertising

Differdange weather history for previous 24 hours

 ConditionsComfort  
Time TempWeatherWind HumidityBarometerVisibility
1:50 PM
Jul 26
73 °FScattered clouds.3 mph57%29.95 "HgN/A
1:20 PM72 °FScattered clouds.3 mph61%29.95 "HgN/A
12:50 PM72 °FPassing clouds.1 mph65%29.95 "HgN/A
12:20 PM72 °FPassing clouds.2 mph65%29.98 "HgN/A
11:50 AM70 °FPassing clouds.3 mph69%29.98 "HgN/A
11:20 AM68 °FScattered clouds.5 mph78%29.98 "HgN/A
10:50 AM70 °FPassing clouds.No wind69%29.95 "HgN/A
10:20 AM70 °FPassing clouds.3 mph69%29.95 "Hg6 mi
9:50 AM66 °FClear.2 mph78%29.95 "Hg5 mi
9:20 AM66 °FClear.6 mph78%29.95 "Hg5 mi
8:50 AM66 °FClear.5 mph78%29.95 "Hg4 mi
8:20 AM64 °FClear.5 mph83%29.95 "Hg4 mi
7:50 AM63 °FClear.6 mph88%29.95 "Hg3 mi
7:20 AM63 °FClear.6 mph88%29.92 "Hg3 mi
6:50 AM61 °FClear.8 mph88%29.92 "Hg2 mi
6:20 AM59 °FClear.8 mph94%29.92 "Hg2 mi
5:50 AM59 °FClear.7 mph94%29.92 "Hg2 mi
5:20 AM59 °FPassing clouds.7 mph94%29.92 "HgN/A
4:50 AM59 °FPassing clouds.7 mph94%29.92 "HgN/A
4:20 AM61 °FCool.7 mph88%29.92 "Hg4 mi
3:50 AM61 °FCool.6 mph88%29.92 "Hg4 mi
3:20 AM61 °FCool.8 mph88%29.92 "Hg5 mi
2:50 AM61 °FCool.7 mph88%29.92 "Hg6 mi
2:20 AM61 °FCool.6 mph88%29.92 "HgN/A
1:50 AM61 °FCool.5 mph88%29.92 "HgN/A
1:20 AM61 °FPassing clouds.6 mph88%29.92 "HgN/A
12:50 AM61 °FClear.6 mph88%29.92 "Hg10 mi
12:20 AM61 °FClear.3 mph88%29.92 "Hg10 mi
11:50 PM
Jul 25
59 °FClear.5 mph88%29.92 "Hg10 mi
11:20 PM61 °FPassing clouds.6 mph88%29.92 "HgN/A
10:50 PM61 °FPassing clouds.5 mph83%29.92 "HgN/A
10:20 PM63 °FPassing clouds.6 mph77%29.92 "HgN/A
9:50 PM64 °FSunny.5 mph73%29.92 "Hg10 mi
9:20 PM64 °FSunny.5 mph73%29.92 "Hg10 mi
8:50 PM66 °FPassing clouds.7 mph64%29.92 "HgN/A
8:20 PM66 °FPassing clouds.7 mph64%29.92 "HgN/A
7:50 PM66 °FPassing clouds.8 mph64%29.89 "HgN/A
7:20 PM68 °FPassing clouds.7 mph56%29.89 "HgN/A
6:50 PM68 °FPassing clouds.9 mph60%29.92 "HgN/A
6:20 PM68 °FPassing clouds.12 mph60%29.92 "HgN/A
5:50 PM70 °FPassing clouds.17 mph53%29.92 "HgN/A
5:20 PM72 °FScattered clouds.15 mph61%29.92 "HgN/A
4:50 PM68 °FThunderstorms. Partly sunny.5 mph73%29.92 "HgN/A
4:20 PM72 °FThunderstorms. Partly sunny.8 mph61%29.92 "HgN/A
3:50 PM73 °FPartly sunny.6 mph53%29.89 "HgN/A
3:20 PM75 °FPartly sunny.3 mph50%29.89 "HgN/A
Weather by CustomWeather, © 2014

See weather overviewHow to use our weather pages